Weather History for Oceanside, CA

Change the Weather History Date:

Friday, January 17, 2014

  Actual Average Record
Temperature  
Mean Temperature 64 °F 53 °F  
Max Temperature 87 °F 66 °F 87 °F (2014)
Min Temperature 41 °F 40 °F 28 °F (2007)
Degree Days  
Heating Degree Days 1 12  
Month to date heating degree days 161 209  
Since 1 July heating degree days 811 943  
Cooling Degree Days 0 0  
Month to date cooling degree days 0 0  
Year to date cooling degree days 0 0  
Growing Degree Days 14 (Base 50)    
Moisture  
Dew Point 29 °F    
Average Humidity 25    
Maximum Humidity 43    
Minimum Humidity 6    
Precipitation  
Precipitation 0.00 in 0.09 in 0.03 in (2010)
Month to date precipitation 0.00 1.78  
Year to date precipitation 0.00 1.78  
Since 1 July precipitation 1.60 6.17  
Snow  
Snow 0.00 in - - ()
Month to date snowfall 0.0  
Year to date snowfall 0.0  
Since 1 July snowfall 0.0  
Snow Depth 0.00 in    
Sea Level Pressure  
Sea Level Pressure 30.05 in    
Wind  
Wind Speed 2 mph (WSW)    
Max Wind Speed 14 mph    
Max Gust Speed 16 mph    
Visibility 10 miles    
Events      
T = Trace of Precipitation, MM = Missing Value Source: NWS Daily Summary

Daily Weather History Graph

Daily Weather History Graph

Search for Another Location

Airport:

Trip Planner

Search our weather history database for the weather conditions in past years. The results will help you decide how hot, cold, wet, or windy it might be!

Date:

Astronomy

Jan. 17, 2014 Rise Set
Actual Time 6:52 AM PST 5:07 PM PST
Civil Twilight 6:25 AM PST 5:33 PM PST
Nautical Twilight 5:55 AM PST 6:04 PM PST
Astronomical Twilight 5:25 AM PST 6:33 PM PST
Moon 6:50 PM PST (1/17) 7:29 AM PST (1/17)
Length of Visible Light 11h 08m
Length of Day
10h 14m
Full, 98% of the Moon is Illuminated
Jan 17
Full
Jan 23
Last Quarter
Jan 30
New
Feb 6
First Quarter
Feb 14
Full

Hourly Weather History & Observations

Time (PST) Temp. Dew Point Humidity Pressure Visibility Wind Dir Wind Speed Gust Speed Precip Events Conditions
12:52 AM 46.9 °F 19.9 °F 34% 30.05 in 10.0 mi Calm Calm - N/A   Clear
1:52 AM 46.0 °F 19.9 °F 35% 30.06 in 10.0 mi Calm Calm - N/A   Clear
2:52 AM 45.0 °F 21.9 °F 40% 30.06 in 10.0 mi Calm Calm - N/A   Clear
3:52 AM 46.0 °F 21.0 °F 37% 30.06 in 10.0 mi Calm Calm - N/A   Clear
4:52 AM 43.0 °F 21.0 °F 42% 30.07 in 10.0 mi Calm Calm - N/A   Clear
5:52 AM 43.0 °F 21.9 °F 43% 30.08 in 10.0 mi Calm Calm - N/A   Clear
6:52 AM 44.1 °F 19.9 °F 38% 30.08 in 10.0 mi Calm Calm - N/A   Clear
7:52 AM 52.0 °F 21.0 °F 30% 30.09 in 10.0 mi ENE 3.5 mph - N/A   Clear
8:52 AM 63.0 °F 21.0 °F 20% 30.11 in 10.0 mi Calm Calm - N/A   Clear
9:52 AM 72.0 °F 19.0 °F 13% 30.10 in 10.0 mi East 3.5 mph - N/A   Clear
10:52 AM 80.1 °F 17.1 °F 9% 30.08 in 10.0 mi Calm Calm - N/A   Clear
11:52 AM 84.9 °F 8.1 °F 5% 30.04 in 10.0 mi Calm Calm - N/A   Clear
12:52 PM 79.0 °F 25.0 °F 14% 30.02 in 10.0 mi West 6.9 mph - N/A   Clear
1:52 PM 79.0 °F 30.9 °F 17% 30.01 in 10.0 mi West 9.2 mph - N/A   Clear
2:52 PM 77.0 °F 32.0 °F 19% 30.00 in 10.0 mi West 6.9 mph - N/A   Clear
3:52 PM 70.0 °F 53.1 °F 55% 30.01 in 10.0 mi SW 8.1 mph - N/A   Clear
4:52 PM 66.9 °F 51.1 °F 57% 30.02 in 10.0 mi SSW 4.6 mph - N/A   Clear
5:52 PM 63.0 °F 46.9 °F 56% 30.04 in 9.0 mi Calm Calm - N/A   Clear
6:52 PM 54.0 °F 44.1 °F 69% 30.04 in 10.0 mi Calm Calm - N/A   Clear
7:52 PM 48.9 °F 41.0 °F 74% 30.05 in 9.0 mi Calm Calm - N/A   Clear
8:52 PM 48.0 °F 39.0 °F 71% 30.05 in 9.0 mi Calm Calm - N/A   Clear
9:52 PM 46.9 °F 35.1 °F 63% 30.06 in 10.0 mi Calm Calm - N/A   Clear
10:52 PM 45.0 °F 30.9 °F 58% 30.06 in 10.0 mi Calm Calm - N/A   Clear
11:52 PM 43.0 °F 30.0 °F 60% 30.05 in 10.0 mi Calm Calm - N/A   Clear